YAOGAN-30 AE (49028 NORAD) Tracking and Keplerian Element Data

This shows tracking and keplerian element data for the satellite.

Feedback or suggestion? Click here.




ElementValue
Catalog49028
NameYAOGAN-30 AE
Epoch Orbit1027
Epoch Day269.02210849
Epoch Year2021
RAAN225.1212
Inclination34.9959
Eccentricity6.82E-05
Argument of Perigee336.2146
Mean Anonmoly23.854
Mean Motion14.89972938
Decay Rate3.1E-06
L11 49028U 21065C 21269.02210849 .00000310 00000-0 34333-4 0 9997
L22 49028 34.9959 225.1212 0000682 336.2146 23.8540 14.89972938 10272

Live tracking and technical data element details for YAOGAN-30 AE (NORAD 49028). YAOGAN-30 AE can be tracked NOW for your location showing map with azimuth and elevation plus other details from your city location.

Track the satellite on the map from your city or location and see movement details for azimuth, elevation, latitude, longitude, range, height, and movement on the map or in text.







IsCatalogInMostPopularTable: catalog: 49028, numindb: 16
Update: records affected: 1



GetName: 49028 YAOGAN-30 AE

Hit Count: updated at: Sun, 26 Sep 2021 16:33:30 GMT